Location: Bathurst
(33.4193°S, 149.5775°E)
Time: 01:03:30
(UTC+10:00)

A-11 Canister half - Pass Details

Date: 17 June 2021
Orbit: 1513 x 1687 km, 47.2° (Epoch: 28 July)

Event Time Altitude Azimuth Distance (km) Brightness Sun altitude
Rises 17:05:15 0° 299° (WNW) 4,664 15.5 -1.6°
Reaches altitude 10° 17:08:16 10° 296° (WNW) 3,699 13.2 -2.2°
Maximum altitude 17:17:37 71° 213° (SSW) 1,649 9.3 -4.0°
Drops below altitude 10° 17:27:22 10° 129° (SE) 3,845 10.5 -5.8°
Enters shadow 17:28:43 - 127° (SE) 4,269 10.7 -6.1°
